Location: Oriwa
(40.7500°S, 175.3333°E)
Time: 14:14:15
(UTC+00:00)

USA 229 - Pass Details

Date: 03 February 2023
Orbit: 916 x 1296 km, 63.4° (Epoch: 28 March)

Event Time Altitude Azimuth Distance (km) Brightness Sun altitude
Rises 13:54:19 0° 218° (SW) 3,845 7.0 -29.7°
Reaches altitude 10° 13:57:05 10° 221° (SW) 2,833 6.2 -29.5°
Enters shadow 14:02:11 49° 253° (WSW) 1,248 3.9 -29.1°
